DW0742 Weather Reports


Display with metric or nautical units.
time (UTC)temp
F
wind
direction
speed
MPH
gust
MPH
rain 1hr
in
rain 24hr
in
rain mn
in
humidity
%
barometer
mb
20260505224540 79 0 0.0 6.0 0.00 0.00 0.00 15 1004.6
20260505223051 78 0 1.0 8.0 0.00 0.00 0.00 15 1004.7
20260505221543 78 0 0.0 7.0 0.00 0.00 0.00 16 1004.8
20260505220043 79 0 0.0 4.0 0.00 0.00 0.00 18 1005.1
20260505214549 79 0 0.0 4.0 0.00 0.00 0.00 17 1005.5
20260505213036 77 0 1.0 5.0 0.00 0.00 0.00 18 1005.5
20260505211542 77 0 0.0 2.0 0.00 0.00 0.00 19 1005.8
20260505210035 77 15 0.0 4.0 0.00 0.00 0.00 21 1005.9
20260505204542 76 0 1.0 4.0 0.00 0.00 0.00 21 1006.1
20260505203050 78 0 0.0 5.0 0.00 0.00 0.00 21 1006.1
20260505201545 78 0 0.0 4.0 0.00 0.00 0.00 20 1006.1
20260505200039 77 198 0.0 5.0 0.00 0.00 0.00 21 1006.2
20260505194543 76 0 0.0 10.0 0.00 0.00 0.00 23 1006.4
20260505193041 74 0 0.0 0.0 0.00 0.00 0.00 26 1006.6
20260505191543 73 0 0.0 4.0 0.00 0.00 0.00 29 1006.7
20260505190040 72 0 0.0 6.0 0.00 0.00 0.00 29 1006.9
20260505184546 73 0 0.0 4.0 0.00 0.00 0.00 29 1006.9
20260505183043 75 0 0.0 3.0 0.00 0.00 0.00 28 1006.9
20260505181542 74 0 0.0 6.0 0.00 0.00 0.00 28 1006.9
20260505180044 72 0 0.0 5.0 0.00 0.00 0.00 30 1007.0
20260505174536 72 4 0.0 4.0 0.00 0.00 0.00 31 1007.0
20260505173036 73 0 0.0 0.0 0.00 0.00 0.00 31 1006.9
20260505171539 73 0 0.0 2.0 0.00 0.00 0.00 30 1006.9
20260505170041 72 0 0.0 3.0 0.00 0.00 0.00 34 1007.0
20260505164541 70 0 0.0 2.0 0.00 0.00 0.00 35 1006.9
20260505163037 70 0 0.0 0.0 0.00 0.00 0.00 35 1006.7
20260505161545 69 0 0.0 0.0 0.00 0.00 0.00 37 1006.7
20260505153045 66 0 0.0 0.0 0.00 0.00 0.00 42 1006.4
20260505151543 66 0 0.0 0.0 0.00 0.00 0.00 43 1006.2
20260505124540 57 0 0.0 0.0 0.00 0.00 0.00 55 1005.4
20260505123038 57 0 0.0 0.0 0.00 0.00 0.00 55 1005.3
20260505121543 57 0 0.0 0.0 0.00 0.00 0.00 55 1005.3
20260505120035 57 0 0.0 0.0 0.00 0.00 0.00 54 1005.4
20260505114542 58 0 0.0 0.0 0.00 0.00 0.00 54 1005.3
20260505113042 58 0 0.0 0.0 0.00 0.00 0.00 53 1005.5
20260505111544 58 0 0.0 0.0 0.00 0.00 0.00 52 1005.6
20260505101544 60 0 0.0 0.0 0.00 0.00 0.00 49 1005.3
20260505100039 60 0 0.0 0.0 0.00 0.00 0.00 49 1005.3
20260505094539 60 0 0.0 0.0 0.00 0.00 0.00 48 1005.3
20260505093046 60 0 0.0 0.0 0.00 0.00 0.00 48 1005.4
20260505091537 61 0 0.0 0.0 0.00 0.00 0.00 47 1005.4
20260505090041 61 0 0.0 0.0 0.00 0.00 0.00 47 1005.3
20260505084540 61 0 0.0 0.0 0.00 0.00 0.00 46 1005.6
20260505083043 61 0 0.0 0.0 0.00 0.00 0.00 45 1005.5
20260505081537 62 0 0.0 0.0 0.00 0.00 0.00 44 1005.6
20260505080045 62 0 0.0 0.0 0.00 0.00 0.00 42 1005.5
20260505074540 63 0 0.0 0.0 0.00 0.00 0.00 41 1005.6
20260505073042 64 0 0.0 0.0 0.00 0.00 0.00 40 1005.7
20260505071539 64 0 0.0 0.0 0.00 0.00 0.00 38 1005.6
20260505070049 64 0 0.0 0.0 0.00 0.00 0.00 37 1005.5
20260505064537 65 0 0.0 3.0 0.00 0.00 0.00 35 1005.5
20260505063042 66 0 0.0 0.0 0.00 0.00 0.00 33 1005.5
20260505061607 67 0 0.0 6.0 0.00 0.00 0.00 32 1005.5
20260505060050 67 0 0.0 7.0 0.00 0.00 0.00 32 1005.7
20260505054546 67 0 0.0 9.0 0.00 0.00 0.00 31 1005.7
20260505053035 67 0 2.0 11.0 0.00 0.00 0.00 30 1005.8
20260505051537 68 226 2.0 8.0 0.00 0.00 0.00 29 1005.7
20260505041537 68 0 2.0 12.0 0.00 0.00 0.00 30 1005.5
20260505040051 68 226 1.0 8.0 0.00 0.00 0.00 30 1005.5
20260505034541 69 245 1.0 10.0 0.00 0.00 0.00 30 1005.3
20260505033041 69 0 0.0 7.0 0.00 0.00 0.00 30 1005.1
20260505031548 70 0 0.0 7.0 0.00 0.00 0.00 29 1004.9
20260505030035 70 0 1.0 8.0 0.00 0.00 0.00 28 1004.8
20260505024537 71 255 0.0 7.0 0.00 0.00 0.00 28 1004.8
20260505023035 71 241 3.0 14.0 0.00 0.00 0.00 28 1004.6
20260505021538 72 302 2.0 15.0 0.00 0.00 0.00 26 1004.7
20260505020042 72 0 2.0 13.0 0.00 0.00 0.00 24 1004.7
20260505014542 73 295 4.0 15.0 0.00 0.00 0.00 23 1004.5
20260505013037 75 212 2.0 14.0 0.00 0.00 0.00 20 1004.6
20260505011537 76 0 1.0 7.0 0.00 0.00 0.00 20 1004.7
20260505010055 77 303 1.0 10.0 0.00 0.00 0.00 19 1004.8
20260505004540 77 0 2.0 10.0 0.00 0.00 0.00 19 1004.8
20260505003041 78 0 1.0 13.0 0.00 0.00 0.00 21 1004.7
20260505001540 77 200 2.0 12.0 0.00 0.00 0.00 20 1004.9
20260505000047 77 0 0.0 10.0 0.00 0.00 0.00 20 1004.9
20260504234536 77 98 0.0 6.0 0.00 0.00 0.00 22 1004.5
20260504233035 78 0 0.0 5.0 0.00 0.00 0.00 21 1004.5
20260504231542 78 0 0.0 7.0 0.00 0.00 0.00 19 1004.5
20260504230041 77 0 0.0 5.0 0.00 0.00 0.00 22 1004.6